Location: Bílinka
(49.3579°N, 14.3767°E)
Time: 01:07:29
(UTC+00:00)

Cosmos 2227 Rocket - Pass Details

Date: 28 January 2023
Orbit: 839 x 844 km, 71.0° (Epoch: 31 March)

Event Time Altitude Azimuth Distance (km) Brightness Sun altitude
Rises 16:22:10 0° 329° (NNW) 3,415 5.5 -5.4°
Reaches altitude 10° 16:24:38 10° 327° (NNW) 2,476 4.8 -5.7°
Maximum altitude 16:30:16 68° 246° (WSW) 910 2.7 -6.6°
Drops below altitude 10° 16:35:51 10° 165° (SSE) 2,457 4.7 -7.5°
Sets 16:38:18 0° 163° (SSE) 3,387 5.4 -7.8°
